Regional Weather Roundup
Issued by NWS

Home | Current Version | Previous Version | Text Only | Print | Product List | Glossary Off
Versions: 1 2 3 4 5 6 7 8 9 10 11 12 13 14 15 16 17 18 19 20 21 22 23 24 25 26 27 28 29 30 31 32 33 34 35 36 37 38 39 40 41 42 43 44 45 46 47 48 49 50

000
ASUS45 KABQ 032210
RWRNM
NEW MEXICO REGIONAL WEATHER ROUNDUP
NATIONAL WEATHER SERVICE ALBUQUERQUE NM
400 PM MDT FRI JUL 03 2015

NOTE: "FAIR" MEANS FEW OR NO CLOUDS BELOW 12,000 FEET AGL WITH NO
       SIGNIFICANT WEATHER OR OBSTRUCTIONS TO VISION.

      THIS PRODUCT IS RELEASED AS TWO VERSIONS.  ONE VERSION NEAR
      THE TOP OF THE HOUR CONTAINING PRELIMINARY DATA FROM ALBUQUERQUE
      AND OTHER STATIONS.  A FINAL VERSION WITH ADDITIONAL DATA IS
      ISSUED ABOUT 10 MINUTES AFTER THE HOUR.

NMZ501-503-504-510>518-032300-
NORTHWEST PLATEAU/NORTHCENTRAL MOUNTAINS

CITY           SKY/WX    TMP DP  RH WIND       PRES   REMARKS
FARMINGTON     SUNNY     88  50  27 SE6       30.06F
LOS ALAMOS     CLOUDY    62  55  79 SW8       30.28F
SANTA FE       CLOUDY    79  51  37 NW10      30.18F
TAOS           PTSUNNY   72  46  40 E5        30.26F
ANGEL FIRE     MOCLDY    64  52  65 SE13      30.37F

$$
NMZ402-403-502-505>509-032300-
WESTCENTRAL MOUNTAINS/SOUTHWEST MOUNTAINS

CITY           SKY/WX    TMP DP  RH WIND       PRES   REMARKS
GALLUP         MOSUNNY   87  46  24 VRB5      30.14F
GRANTS         PTSUNNY   85  50  29 E7G16     30.18F
SILVER CITY      N/A     84  54  34 E12       30.12F

$$
NMZ407-409-411-412-032300-
SOUTHERN DESERTS

CITY           SKY/WX    TMP DP  RH WIND       PRES   REMARKS
LORDSBURG      FAIR      90  54  29 E7        30.01F
DEMING         MOSUNNY   92  52  25 SW6       30.00F
LAS CRUCES     MOSUNNY   88  53  30 E5        30.03F
HOLLOMAN AFB   CLOUDY    90  54  29 SE14      29.98F
ALAMOGORDO     MOSUNNY   90  54  29 S8        30.02F
T OR C         PTSUNNY   90  52  27 VRB6      30.04F

$$
NMZ519>523-032300-
CENTRAL VALLEYS/CENTRAL HIGHLANDS

CITY           SKY/WX    TMP DP  RH WIND       PRES   REMARKS
ALBUQUERQUE    PTSUNNY   87  54  32 VRB3      30.09F
DOUBLE EAGLE   PTSUNNY   82  57  42 VRB6      30.15F
MORIARTY ARPT    N/A     83  48  29 N3        30.18F
CLINES CORNERS CLOUDY    77  53  43 SE7G18    30.22F
BELEN          FAIR      89  49  25 NE7       30.08F
SOCORRO        FAIR      88  53  30 E3        30.05F

$$
NMZ524>526-539-540-032300-
SOUTHCENTRAL MOUNTAINS

CITY           SKY/WX    TMP DP  RH WIND       PRES   REMARKS
RUIDOSO        MOSUNNY   75  52  43 E8        30.25F

$$
NMZ527>531-032300-
NORTHEAST HIGHLANDS/NORTHEAST PLAINS

CITY           SKY/WX    TMP DP  RH WIND       PRES   REMARKS
LAS VEGAS      CLOUDY    68  54  60 N15       30.27R
RATON          PTSUNNY   78  55  44 SW7       30.15F
CLAYTON        MOSUNNY   89  51  27 S15       30.06F

$$
NMZ532>537-032300-
EASTCENTRAL PLAINS

CITY           SKY/WX    TMP DP  RH WIND       PRES   REMARKS
TUCUMCARI      MOSUNNY   90  55  30 VRB6      30.03F
CANNON AFB     PTSUNNY   86  57  37 VRB6      30.07F
CLOVIS AIRPORT PTSUNNY   84  55  37 SE7         N/A

$$
NMZ028-029-538-032300-
SOUTHEAST PLAINS

CITY           SKY/WX    TMP DP  RH WIND       PRES   REMARKS
ROSWELL        CLOUDY    86  63  45 NE6       30.04S
ARTESIA        CLOUDY    84  63  48 SE17G23   30.05S
CARLSBAD       LGT RAIN  74  66  76 N15       30.03R
HOBBS          PTSUNNY   84  59  42 E8        30.04S


$$


USA.gov is the U.S. government's official web portal to all federal, state and local government web resources and services.